GFSSGP_prec_cloud_231.txt.gz
Cloud_Cover
0 0 0 5 5 5 30 65 82 94 64 36 100 62 24 94 100 95 50 11 0 24 6 20 97 95 100 44 3 81 100 100 81 59 100 3 0 3 44 18 0 10 8 43 77 93 0 16 9
7 0 0 0 1 4 2 32 88 90 86 66 22 99 100 51 39 62 100 95 5 10 22 1 18 42 86 0 0 73 100 100 100 100 88 0 0 0 62 3 6 18 47 100 100 100 72 3 20
100 14 0 0 0 0 8 5 19 100 80 7 26 96 92 19 36 38 100 100 92 19 42 1 0 5 62 0 0 1 100 100 100 10 47 43 4 12 92 15 23 21 0 66 40 32 18 10 18
76 100 11 0 0 0 2 68 100 95 99 84 68 94 100 86 28 79 100 100 100 95 44 1 0 0 0 0 0 2 92 58 0 6 0 0 0 40 0 0 8 24 0 0 0 1 36 2 0
50 75 98 94 1 0 0 72 7 88 100 94 35 100 100 100 86 97 100 100 100 100 24 11 0 0 0 0 0 0 100 96 90 2 1 47 8 0 0 0 99 16 6 0 0 0 6 0 0
89 48 99 100 50 0 0 83 46 18 100 85 95 94 100 100 100 100 100 100 100 100 95 36 5 3 0 0 0 0 99 46 10 1 0 8 1 0 0 1 8 38 13 0 0 0 0 0 0
100 48 100 100 100 4 0 6 75 89 94 7 75 95 64 100 100 100 100 100 100 100 100 100 94 41 0 0 1 39 100 0 0 0 0 0 0 0 0 0 17 0 0 0 0 0 0 0 0
99 48 100 100 100 79 4 5 74 5 5 31 85 100 95 100 100 100 100 100 100 100 100 100 100 95 55 0 0 5 7 2 0 0 0 0 0 0 0 0 46 15 7 0 5 0 5 1 5
40 55 100 100 100 100 4 5 5 3 0 5 30 100 89 99 100 100 100 100 100 100 100 100 100 100 100 5 24 7 70 28 20 0 0 0 0 0 0 26 58 100 6 5 5 5 5 5 5
18 12 100 100 100 100 7 5 5 4 0 1 1 100 95 97 97 77 100 100 100 100 100 100 100 100 100 99 7 4 100 96 100 6 4 5 4 5 5 5 32 44 7 5 5 5 5 5 5
5 5 100 100 100 100 96 6 5 4 2 0 0 6 100 100 100 100 100 100 100 100 100 100 100 100 100 100 89 47 91 100 47 82 5 5 5 14 15 22 84 100 78 42 5 5 5 5 12
0 5 100 100 100 100 98 10 5 6 4 0 0 0 91 100 100 100 100 100 100 100 100 100 100 100 100 100 100 95 58 100 100 49 100 24 34 44 36 7 100 99 33 43 69 20 37 5 5
0 1 85 100 100 100 100 93 79 54 34 0 0 0 21 100 100 100 79 100 100 100 100 100 100 100 100 100 100 100 100 61 100 90 59 100 66 64 95 85 88 97 40 11 90 21 100 77 5
0 0 27 88 45 30 100 100 75 94 98 5 0 0 0 38 100 100 100 88 100 100 100 100 100 100 100 100 100 100 100 100 100 71 95 64 77 91 100 100 100 100 100 90 86 81 54 63 72
0 0 0 70 77 7 100 100 93 100 55 5 5 0 0 0 83 100 100 100 89 100 100 100 100 100 100 100 100 100 100 100 100 76 100 100 99 84 100 100 100 100 100 100 100 100 66 94 100
0 0 0 2 5 6 43 100 100 100 79 42 6 86 2 0 0 100 100 100 100 100 100 100 100 100 100 100 100 100 100 100 100 100 78 43 90 45 96 100 100 100 100 100 100 100 100 98 97
8 4 3 0 2 2 68 94 100 100 35 14 94 100 75 2 0 4 100 100 100 100 100 100 100 100 100 100 100 100 100 100 100 100 100 36 37 46 37 100 100 100 100 100 100 100 89 95 90
67 60 100 55 5 4 4 29 100 100 24 59 100 100 100 5 5 1 10 100 100 100 100 100 100 100 100 100 100 100 100 100 100 100 100 100 23 79 100 100 100 100 100 100 100 100 100 100 100
6 76 100 100 85 12 39 94 100 100 100 100 100 100 100 100 26 5 5 69 100 100 100 100 100 100 100 100 100 100 100 100 100 100 100 100 100 32 100 100 100 100 100 100 100 100 100 100 100
5 100 96 82 100 92 72 7 100 100 100 100 100 100 100 100 100 6 4 5 99 100 100 100 100 100 100 100 100 100 100 100 100 100 100 100 100 100 100 100 100 100 100 100 100 100 100 100 100
26 63 100 99 100 91 100 100 77 100 100 100 100 100 100 100 100 100 100 66 6 80 100 100 100 100 100 100 100 100 100 100 100 100 100 100 100 100 100 100 100 100 100 100 100 100 100 100 100
100 35 85 100 100 97 100 100 100 100 100 100 100 100 100 100 100 100 100 82 54 98 32 100 100 100 100 100 100 100 100 100 100 100 100 100 100 100 100 100 100 100 100 100 100 100 100 100 100
38 13 18 81 100 100 46 100 100 100 100 99 100 100 100 100 100 56 95 100 94 79 7 91 74 100 100 100 100 100 100 100 100 100 100 100 100 100 100 100 100 100 100 100 100 100 100 100 100
73 70 7 96 99 100 100 22 100 100 58 50 22 85 85 100 72 64 46 19 100 75 11 9 5 71 100 100 100 96 89 100 100 100 100 100 89 97 100 100 100 100 100 100 100 100 100 100 100
87 67 68 56 72 11 88 100 48 100 93 9 5 5 1 4 69 6 1 2 0 34 100 35 6 14 12 75 100 100 100 100 100 100 100 99 100 100 95 100 100 100 100 100 100 100 100 100 100
100 95 83 82 76 5 1 2 39 51 16 98 54 5 1 0 0 7 50 4 0 0 42 14 0 33 8 47 90 100 100 100 100 100 100 100 100 100 100 100 100 100 100 100 100 100 100 100 100
89 69 81 97 10 74 4 34 1 18 12 8 19 54 15 80 12 1 0 5 5 1 3 100 16 2 4 37 28 100 100 100 100 100 100 100 100 100 100 100 100 100 100 100 100 100 100 100 100
100 100 100 100 100 100 98 7 69 96 92 100 100 100 100 81 100 78 49 8 1 5 4 10 94 5 2 2 19 77 99 100 100 100 100 100 100 100 100 100 100 100 100 100 100 100 100 100 100
100 100 100 100 100 98 88 96 99 100 100 100 100 100 100 100 100 100 100 100 79 61 62 100 100 77 73 2 10 97 100 100 100 100 100 100 100 100 100 100 100 100 100 100 100 100 100 100 100
100 100 100 100 93 94 90 95 100 100 100 100 100 100 100 100 100 100 100 100 100 100 100 100 100 84 99 72 71 15 100 100 99 97 100 100 100 100 100 100 100 100 100 100 100 100 100 100 100

GFSSGP_prec_cloud_234.txt.gz
Cloud_Cover
9 5 7 41 50 24 5 6 76 81 18 98 30 5 66 25 5 5 5 5 6 50 19 8 96 100 98 99 76 100 56 100 21 5 0 0 100 100 8 0 1 1 73 96 11 94 4 19 20
5 12 3 5 6 5 5 5 32 8 9 76 30 89 68 55 8 6 7 79 25 40 10 5 72 99 16 5 5 75 100 94 2 12 0 0 1 0 0 35 7 1 100 100 14 26 7 47 98
5 6 5 5 4 2 2 9 5 5 76 100 58 17 68 100 99 5 5 99 100 82 22 7 76 100 18 5 16 28 100 12 23 0 0 0 21 0 0 81 6 3 99 100 100 31 6 11 100
90 30 30 100 99 3 0 7 5 5 5 51 88 42 11 82 100 42 5 8 86 62 99 17 26 100 75 5 7 45 22 79 0 30 0 0 29 0 0 96 0 0 34 93 22 0 1 10 100
83 87 14 100 100 74 0 82 5 9 11 69 50 29 6 96 100 99 5 12 48 78 100 90 100 92 6 5 1 100 33 0 0 0 0 0 0 0 0 100 7 0 18 37 99 60 11 38 42
73 100 25 100 100 88 3 36 8 5 5 65 98 17 5 12 100 100 73 14 57 100 100 100 100 84 9 3 2 94 100 59 0 0 54 0 0 0 0 96 15 0 0 21 95 52 0 0 54
5 86 96 100 100 98 69 0 13 5 8 94 12 95 52 75 100 100 100 90 66 99 100 100 100 100 73 0 1 74 64 44 0 0 0 0 0 0 2 94 1 0 0 9 54 0 0 0 0
5 1 100 100 100 100 44 5 6 6 4 5 67 96 100 79 100 100 100 100 88 100 100 100 100 100 100 100 75 100 0 0 5 5 4 0 0 0 42 69 23 0 0 6 1 1 5 5 3
5 0 62 100 100 100 4 1 5 5 5 5 5 5 100 100 100 100 100 100 100 100 100 100 100 100 100 100 100 100 2 1 4 5 5 5 3 5 2 4 69 0 5 4 5 5 5 5 14
0 2 1 100 100 100 76 3 48 45 5 5 2 5 82 100 99 100 100 100 100 100 100 100 100 100 100 100 93 100 71 3 5 5 6 5 13 5 5 45 100 5 5 24 8 5 5 5 5
20 3 43 57 97 100 97 6 5 97 5 5 0 0 5 100 100 100 100 100 100 100 100 100 100 100 100 100 100 100 100 68 5 5 6 6 43 40 39 44 35 5 6 45 47 5 5 5 5
0 0 0 41 1 99 100 54 19 95 74 8 5 0 0 18 100 100 100 100 100 100 100 100 100 100 100 100 100 100 100 100 56 6 31 77 82 87 44 27 76 57 67 70 87 99 48 43 12
0 0 0 3 4 19 100 100 55 100 100 23 5 2 0 0 18 100 100 100 100 100 100 100 100 100 100 100 100 100 100 100 100 74 57 35 95 65 88 55 100 83 61 100 100 100 100 100 78
0 0 0 0 0 2 60 99 72 100 100 100 5 5 0 0 0 44 100 100 100 100 100 100 99 100 100 100 100 100 100 100 100 100 59 40 32 66 82 62 56 71 99 100 100 100 100 100 100
0 4 0 0 0 0 2 36 100 100 100 84 5 5 5 0 0 0 97 100 100 100 100 100 100 100 100 100 100 100 100 100 100 100 98 18 11 12 60 72 100 100 100 100 100 100 100 100 100
4 97 52 2 0 3 4 4 5 100 94 78 18 70 100 6 0 0 0 100 100 100 100 100 100 100 100 100 100 100 100 100 98 100 100 100 66 10 29 73 89 62 91 100 100 100 100 100 100
2 72 100 63 5 0 0 7 33 99 96 98 100 100 100 100 18 0 0 64 100 100 100 100 100 100 100 100 100 100 100 100 100 100 100 100 100 100 94 10 64 69 97 100 100 100 100 100 100
5 6 98 97 67 0 0 6 6 96 88 100 100 100 100 100 100 99 16 0 73 100 100 100 100 100 100 100 100 100 100 100 100 100 100 100 100 100 100 86 73 96 93 100 100 100 100 100 100
5 4 5 86 40 100 15 24 52 19 64 100 100 100 100 100 100 100 100 5 0 84 100 100 100 100 100 100 100 100 100 100 100 100 100 100 100 100 100 100 100 100 100 100 100 100 100 100 100
5 5 5 4 41 100 82 100 62 69 55 100 100 100 100 100 100 98 31 72 12 4 53 100 100 100 100 100 100 100 100 100 100 100 100 100 100 100 100 100 100 100 100 100 100 100 100 100 100
5 5 5 14 5 100 100 100 100 100 100 83 100 100 40 21 59 100 93 23 54 3 0 83 100 100 100 100 100 100 100 100 100 100 100 100 100 100 100 100 100 100 100 100 100 100 100 100 100
7 5 5 5 5 26 100 100 100 50 83 96 96 100 100 100 100 100 100 83 80 64 2 15 94 100 100 100 100 100 100 100 99 100 100 100 100 100 100 100 100 100 100 100 100 100 100 100 100
34 72 5 5 87 6 99 100 99 94 7 74 71 95 100 100 95 79 97 100 100 96 100 75 5 65 100 100 100 100 100 100 100 100 100 100 100 100 100 100 100 100 100 100 100 100 100 100 100
5 21 34 60 67 18 26 100 100 27 12 7 80 24 35 100 97 92 29 97 98 84 33 100 38 10 65 100 100 100 100 100 100 100 100 100 100 100 100 100 100 100 100 100 100 100 100 100 100
7 60 21 5 22 4 1 82 100 100 58 47 33 7 7 16 98 100 69 5 38 99 23 5 54 100 34 32 100 100 100 100 100 100 100 100 100 100 100 99 100 100 100 100 100 100 100 100 100
97 99 84 79 92 31 1 1 52 100 100 100 43 24 6 12 5 33 100 96 24 39 57 66 5 98 98 60 36 90 100 100 100 100 100 100 100 100 100 100 79 100 100 100 100 100 100 100 100
96 100 100 100 76 90 46 94 7 5 65 98 100 100 100 100 68 67 100 100 93 6 87 43 33 19 48 100 58 39 97 100 100 100 100 100 100 100 100 100 100 100 100 100 100 100 100 100 100
83 97 100 100 84 87 10 53 72 75 46 56 100 100 100 100 100 100 100 100 100 55 82 100 99 99 78 6 71 88 79 99 97 73 100 100 100 100 100 100 100 100 97 100 100 100 100 100 100
98 93 100 100 100 92 100 95 100 100 98 100 100 100 100 99 100 100 100 100 100 95 90 100 100 100 98 39 77 98 100 100 100 100 100 100 100 100 100 100 100 100 98 100 100 100 100 100 100
34 23 97 92 84 98 100 44 100 100 100 100 100 100 100 100 100 100 100 100 100 100 100 100 100 100 100 100 100 100 100 95 86 100 100 100 94 100 100 100 100 100 100 100 100 100 100 100 100

GFSSGP_prec_cloud_237.txt.gz
Cloud_Cover
5 5 5 5 2 1 5 5 24 49 5 27 30 76 6 6 11 5 4 2 29 56 41 51 5 5 28 98 84 100 100 74 5 2 2 10 86 20 0 0 0 6 0 3 1 9 76 100 81
60 11 5 5 5 4 0 3 7 10 35 21 54 34 49 7 17 68 32 43 44 53 38 14 8 5 87 100 100 37 98 56 0 10 0 79 8 0 0 24 0 86 58 3 1 8 95 97 100
60 96 5 5 54 100 0 4 4 4 74 40 78 12 89 21 6 29 100 68 65 58 17 4 42 28 90 100 92 98 85 1 1 1 0 0 0 0 4 16 0 100 80 0 9 6 92 74 100
5 94 69 5 100 100 9 0 0 0 5 27 49 30 32 100 57 5 98 80 75 44 12 20 98 99 33 61 100 100 4 42 5 0 0 2 0 0 48 56 0 100 100 99 1 2 59 92 51
4 5 42 96 100 100 9 0 0 5 5 5 5 99 90 66 22 5 62 100 100 50 28 53 100 77 28 100 100 99 100 63 8 0 0 0 0 0 89 27 0 0 0 22 91 19 53 100 54
0 4 0 99 100 100 18 1 3 4 5 46 10 45 100 100 84 41 92 100 100 57 43 23 100 96 58 100 100 100 40 2 0 73 0 0 0 0 29 9 6 0 7 100 100 53 100 68 100
0 0 2 60 100 100 82 3 13 5 5 45 9 10 76 100 100 100 100 98 100 44 28 50 100 100 100 98 100 57 5 34 0 35 0 0 0 0 89 56 7 0 100 100 66 8 12 43 100
0 0 0 10 100 100 41 5 5 25 3 5 14 32 23 100 100 98 100 93 100 97 53 54 100 100 100 100 90 100 99 0 1 0 0 0 2 2 98 100 8 0 100 100 22 0 79 4 4
0 0 3 44 100 100 100 27 5 78 5 2 0 5 24 81 100 100 100 100 100 100 87 100 90 100 100 100 100 100 90 84 5 2 0 1 5 5 7 61 39 1 16 17 0 1 18 19 39
0 1 14 100 23 94 100 58 5 77 22 24 5 3 5 5 100 100 100 100 100 100 100 100 99 100 100 100 100 100 100 100 70 20 5 5 9 5 28 18 5 5 5 5 5 5 5 6 15
2 5 0 8 36 5 100 100 6 46 90 99 23 6 4 5 100 100 100 100 100 100 100 100 100 100 100 100 100 100 100 100 100 84 35 8 30 30 48 100 36 9 5 5 7 41 27 8 9
0 0 0 0 16 92 24 100 100 100 100 100 100 24 5 0 5 100 100 100 100 100 100 100 100 100 100 100 100 100 100 100 100 98 100 33 92 42 39 29 30 60 36 5 5 47 56 88 100
0 0 0 0 0 5 11 100 100 100 100 100 100 91 8 1 2 98 100 100 100 100 100 100 100 100 100 100 100 100 100 100 100 95 100 62 100 59 29 30 25 31 98 90 34 37 100 100 100
0 0 0 0 0 2 5 52 100 100 100 100 100 100 89 5 0 13 100 100 100 100 100 100 100 100 100 100 100 100 100 100 100 100 100 100 95 73 17 6 27 17 22 100 87 97 100 100 100
0 0 5 1 0 0 4 5 7 98 100 100 99 25 99 42 5 0 4 100 100 100 100 100 100 100 100 100 100 100 100 100 100 100 100 63 63 35 5 6 12 18 24 41 82 100 100 100 100
0 0 5 89 5 0 0 6 96 61 100 100 100 95 100 100 77 5 3 2 100 100 100 100 100 100 100 100 100 100 100 100 100 100 100 100 99 83 96 78 40 37 98 100 100 100 100 100 100
0 0 13 100 70 5 2 30 100 84 62 100 100 100 100 100 100 100 9 2 4 89 100 100 100 100 100 100 100 100 100 100 100 100 100 100 100 100 97 94 100 83 72 95 100 100 100 100 100
5 5 4 98 100 85 90 97 100 23 2 24 100 100 100 100 100 100 35 5 1 7 99 96 98 100 100 100 100 100 100 100 100 100 100 100 100 100 100 100 100 100 99 98 100 100 89 100 100
5 5 5 3 100 100 100 100 6 5 5 5 40 100 100 100 87 100 38 5 5 0 14 100 100 100 100 100 100 100 100 100 100 100 100 100 100 100 100 100 100 100 100 100 100 100 98 82 100
5 5 5 5 2 100 99 100 53 11 26 100 100 94 100 100 100 100 69 21 6 1 0 41 99 100 100 100 100 100 100 100 100 100 100 100 100 100 100 100 100 100 100 100 100 100 100 100 98
5 5 6 17 3 6 41 80 94 13 5 54 31 11 69 100 100 100 100 94 100 39 16 24 15 94 100 100 100 100 100 100 100 100 100 100 100 100 100 100 100 100 100 100 100 100 100 100 100
5 5 5 5 5 4 2 5 49 15 84 46 5 5 5 96 100 100 100 90 52 34 100 88 100 100 100 100 100 100 100 100 100 100 100 100 100 100 100 100 100 100 100 100 100 100 100 100 100
5 5 5 5 26 5 0 4 5 5 76 20 24 5 5 2 82 96 100 100 29 18 15 66 91 100 100 100 100 100 100 100 100 100 100 100 100 100 100 100 100 100 100 100 100 100 100 100 100
5 4 5 5 5 5 1 3 2 91 98 59 6 9 5 5 9 100 100 100 100 96 14 45 63 34 100 100 100 100 100 100 64 86 100 100 100 100 100 100 100 100 100 100 100 100 100 100 100
5 5 16 4 31 5 5 2 84 46 7 10 34 31 46 37 21 43 96 100 100 100 100 100 50 43 44 100 100 96 100 100 100 100 100 100 100 100 100 100 100 100 100 100 100 100 100 100 100
91 48 98 40 90 50 1 2 46 19 7 5 54 97 85 78 100 85 96 34 100 100 100 100 100 100 100 99 98 98 53 100 100 100 100 100 100 100 100 100 100 100 100 100 100 100 100 100 100
29 69 77 97 100 91 9 16 78 52 22 30 29 90 98 100 100 100 100 38 31 98 53 100 100 100 95 100 100 100 100 100 100 100 100 100 100 100 100 100 100 100 100 100 100 100 100 100 100
5 26 57 62 84 94 78 78 98 66 100 100 92 100 100 100 100 96 100 100 61 70 100 100 100 100 100 100 100 100 100 100 100 100 100 100 100 100 100 100 100 100 100 100 100 100 100 100 100
54 12 52 85 86 100 100 99 100 100 100 100 100 100 100 100 100 100 99 100 100 100 100 100 100 100 100 100 100 100 100 100 100 100 100 100 100 100 100 100 100 100 100 100 100 100 100 100 100
16 71 66 59 79 98 99 91 100 100 100 100 100 100 100 100 100 100 100 100 100 100 100 100 100 100 100 100 100 100 100 100 100 100 100 100 100 100 100 100 100 100 100 100 100 100 100 100 100

GFSSGP_prec_cloud_240.txt.gz
Cloud_Cover
2 5 4 0 1 0 0 0 0 5 5 42 98 50 77 26 61 14 8 12 24 67 97 41 44 2 3 8 89 100 65 75 97 8 0 10 14 0 0 0 0 59 0 2 7 85 96 74 85
0 1 6 15 2 10 6 0 0 5 5 66 100 79 79 79 14 49 29 79 95 93 94 35 11 5 3 1 100 97 98 37 2 3 0 0 0 0 0 0 0 0 2 11 14 65 67 100 52
0 0 0 16 88 96 11 0 0 13 5 6 16 5 59 60 5 15 16 100 100 96 64 47 5 5 5 36 100 100 100 89 100 4 0 0 1 1 18 0 5 10 1 4 34 92 90 100 43
0 0 0 0 99 100 64 0 0 0 5 5 5 5 62 90 11 46 25 100 100 100 72 8 49 95 35 100 100 99 72 0 0 70 2 0 0 16 44 0 9 99 0 18 18 54 70 100 16
0 0 0 0 99 100 71 1 0 5 0 5 5 5 5 81 79 59 97 100 100 100 55 50 88 100 68 100 100 98 98 56 0 0 43 0 0 21 2 0 0 0 0 4 12 56 41 100 31
0 0 0 0 47 100 100 13 0 5 1 3 5 5 4 24 100 99 100 100 100 55 40 100 100 51 100 100 100 34 100 58 15 0 0 3 1 88 6 3 0 0 0 33 100 75 54 86 28
0 0 0 0 5 60 96 37 5 85 5 6 5 5 5 44 71 100 100 100 100 97 98 99 100 100 99 100 95 80 7 7 25 2 35 0 0 36 24 0 1 0 5 71 100 54 77 98 48
0 0 0 0 52 78 1 100 74 100 18 6 39 5 5 9 100 100 100 100 100 100 100 100 100 96 100 100 100 86 16 5 5 20 2 2 1 3 98 100 0 96 81 100 1 46 97 98 66
0 0 0 5 74 50 1 7 99 100 96 5 11 13 42 82 87 100 100 100 100 100 100 100 100 100 100 100 100 99 14 5 6 25 4 5 5 63 100 99 5 5 74 12 0 11 96 58 6
0 1 0 0 95 100 37 30 99 100 100 60 100 100 25 100 100 100 100 100 100 100 100 100 100 100 97 87 99 100 98 26 5 34 14 57 8 28 61 28 56 5 1 5 29 11 5 7 5
5 26 0 0 1 100 100 100 100 100 100 100 100 100 89 100 100 100 100 100 100 100 100 100 100 100 100 100 66 100 100 96 55 38 100 58 87 40 46 76 25 5 0 10 7 11 19 48 42
0 0 0 0 0 13 100 100 100 91 100 100 100 100 100 100 100 100 82 100 100 100 100 100 100 100 100 100 100 99 100 100 87 49 91 72 86 87 100 88 27 11 5 5 5 49 56 7 15
0 0 0 0 0 2 95 100 96 100 100 100 100 100 100 100 95 99 100 100 100 100 100 100 100 100 100 100 100 100 100 100 85 100 99 95 100 91 34 46 29 19 5 5 5 9 28 43 56
0 0 0 0 0 2 3 97 100 75 96 100 100 100 100 97 90 5 68 100 100 100 100 100 100 100 100 100 100 100 100 100 100 100 100 100 98 90 64 21 22 20 13 32 57 78 99 100 83
0 0 0 0 21 0 0 49 100 30 69 100 100 100 100 95 100 36 5 100 100 100 100 100 100 100 100 100 100 100 100 100 100 100 100 100 100 99 90 86 77 100 36 15 52 95 58 89 92
0 0 0 0 60 5 6 56 100 100 98 100 100 100 100 100 100 100 67 48 100 95 100 100 90 100 100 100 100 100 100 100 100 100 100 100 100 100 100 100 100 100 100 92 83 78 51 43 63
2 1 3 0 70 96 100 100 37 5 8 74 100 100 100 100 100 100 100 99 92 100 90 93 100 100 100 100 100 100 100 100 100 100 100 100 100 100 100 100 100 100 100 100 100 100 98 56 54
5 5 4 2 7 100 85 12 21 2 0 5 78 100 100 100 100 100 100 100 100 54 86 34 52 100 100 100 100 100 100 100 100 100 100 100 100 100 100 100 100 100 100 100 100 100 100 100 100
5 5 5 0 22 29 68 83 46 5 0 0 6 100 100 100 100 100 100 100 100 99 60 28 100 100 100 100 100 100 100 100 100 100 100 100 100 100 100 100 100 100 100 100 100 100 100 100 100
5 5 5 2 0 0 16 86 43 28 5 0 5 26 100 100 100 100 100 99 100 100 100 87 96 100 100 100 100 100 100 100 100 100 100 100 100 100 100 100 100 100 100 100 100 100 100 100 100
5 5 5 5 1 0 0 3 100 74 61 5 5 5 54 100 100 100 100 100 73 100 100 100 100 100 100 100 100 100 100 100 100 100 100 100 100 100 100 100 100 100 100 100 100 100 100 100 100
5 5 5 5 5 4 0 4 2 98 55 6 5 5 5 10 100 100 100 100 98 96 100 100 100 100 100 100 100 100 100 100 100 100 100 100 100 100 100 100 100 100 100 100 100 100 100 100 100
5 5 5 5 5 4 0 4 0 11 98 16 5 5 20 10 6 99 100 100 100 100 100 100 100 92 99 100 100 100 100 100 100 92 100 100 100 100 100 100 100 100 100 100 100 100 100 100 100
5 5 5 33 4 5 5 4 5 98 98 88 6 6 58 14 13 81 95 100 100 100 100 100 100 100 100 100 100 100 100 100 100 100 100 100 100 100 100 100 100 100 100 100 100 100 100 100 100
5 5 14 84 59 5 5 2 86 69 13 33 67 32 30 67 100 66 90 90 28 99 100 100 100 100 100 100 100 100 100 100 100 100 100 100 100 100 100 100 100 100 100 100 100 100 100 100 100
31 83 33 100 99 47 1 9 12 43 5 5 5 29 90 100 100 100 100 100 100 64 38 97 100 100 100 100 100 100 100 100 100 100 100 100 100 100 100 100 100 100 100 100 100 100 100 100 100
24 56 74 95 97 83 5 35 96 20 5 5 9 51 98 100 100 100 100 100 100 100 100 100 100 100 100 100 100 100 100 100 100 100 100 100 100 100 100 100 100 100 100 100 100 100 100 100 100
24 27 14 70 52 85 21 5 18 20 68 43 59 98 100 100 100 100 100 87 100 100 100 100 100 100 100 100 100 100 100 100 100 100 100 100 100 100 100 100 100 100 100 100 100 100 100 100 100
80 7 44 82 96 100 92 36 83 100 100 66 100 100 98 94 98 99 100 100 100 100 100 100 100 100 100 100 100 100 100 100 100 100 100 100 100 100 100 100 100 100 100 100 100 100 100 100 100
98 77 90 8 20 77 95 54 99 100 100 100 100 100 54 60 46 53 90 99 92 100 100 100 100 100 100 100 100 100 100 100 100 100 100 100 100 100 100 100 100 100 100 100 100 100 100 100 100

GFSSGP_prec_cloud_246.txt.gz
Cloud_Cover
4 98 100 100 100 14 90 20 10 5 17 23 100 92 2 5 100 100 92 28 93 100 90 88 21 5 3 5 5 4 2 1 11 6 8 7 0 0 0 0 0 18 9 42 83 67 82 98 82
0 0 56 92 100 100 43 4 2 13 98 100 100 100 100 66 44 91 100 100 100 99 100 100 46 5 4 5 5 5 5 3 66 2 0 0 0 0 0 0 1 15 12 49 68 94 80 4 1
0 0 0 0 5 17 5 5 70 5 3 46 82 74 45 78 100 98 55 91 100 86 72 79 51 35 5 5 4 5 5 46 71 0 0 0 8 0 0 0 0 17 18 100 94 98 6 0 0
0 0 0 0 0 0 0 0 0 5 4 1 5 5 6 36 79 76 100 99 100 100 100 100 100 84 74 5 6 93 100 100 98 0 0 0 1 0 0 0 0 8 26 73 65 94 19 0 0
3 0 0 0 0 0 0 0 0 0 7 37 26 8 5 5 5 34 93 100 89 98 100 99 48 100 98 39 72 18 30 16 14 5 2 0 24 22 0 5 0 0 26 58 20 62 22 2 0
0 0 0 0 0 0 0 0 0 0 4 67 100 81 15 76 21 90 86 100 100 94 100 95 5 100 100 99 5 5 31 5 5 5 4 1 39 69 5 0 2 0 9 79 78 100 30 12 0
0 0 0 0 0 3 3 2 0 0 0 5 100 100 98 100 97 100 100 100 100 100 100 100 90 26 100 100 44 5 5 37 6 8 1 0 11 98 64 3 3 0 0 82 50 81 70 8 0
0 0 0 0 0 0 16 82 6 2 4 0 57 100 100 100 97 100 100 100 100 100 100 100 100 100 43 100 100 64 14 100 99 78 2 5 64 42 56 5 0 5 0 5 100 14 96 40 1
0 0 0 0 0 0 19 100 100 24 5 5 12 99 100 100 100 100 100 100 100 100 100 100 100 100 71 62 100 94 100 31 100 100 10 21 58 96 98 5 5 5 13 24 76 17 81 100 16
0 0 0 0 0 0 0 88 100 100 68 4 72 99 100 100 100 100 99 100 100 100 100 100 100 100 100 79 95 88 72 99 100 100 73 5 58 45 100 55 5 5 5 0 31 99 100 100 16
0 4 0 2 0 0 0 4 81 100 97 17 14 98 100 100 100 100 100 26 73 100 100 100 100 100 100 100 100 100 96 100 100 100 100 35 24 31 77 32 6 5 15 34 71 76 70 73 45
0 0 0 0 0 0 3 1 46 100 92 91 100 99 100 100 100 100 100 93 100 95 100 100 100 100 100 100 100 100 100 100 100 100 100 100 54 93 100 59 32 26 29 47 99 97 98 81 37
0 0 0 0 0 0 0 6 39 16 100 96 100 100 100 100 100 100 98 100 89 82 97 100 100 100 100 97 100 100 100 100 100 100 100 100 100 100 100 90 85 84 34 38 98 96 60 68 74
0 0 0 0 0 0 0 2 5 4 77 100 98 100 100 100 100 100 100 100 100 97 100 100 100 100 100 100 100 100 100 100 100 100 100 100 100 100 100 100 100 100 98 99 58 100 99 85 58
0 0 0 0 0 0 0 0 92 5 34 100 71 93 100 100 100 100 100 100 100 100 100 100 100 100 100 100 100 100 100 100 100 100 100 100 100 100 100 100 100 100 100 100 100 100 100 99 99
0 0 0 0 0 0 0 3 93 85 5 100 100 100 100 100 100 100 100 100 100 100 100 100 100 100 100 100 100 100 100 100 100 100 100 100 100 100 100 100 100 100 100 100 100 100 100 100 100
0 0 0 3 0 0 2 4 5 100 50 25 100 100 100 100 100 100 100 100 100 100 100 100 100 100 100 100 100 100 100 100 100 100 100 100 100 100 100 100 100 100 100 100 100 100 100 100 100
4 0 5 5 2 0 0 93 100 100 100 18 23 100 86 100 100 100 100 100 100 100 100 100 100 100 100 100 100 100 100 100 100 100 100 100 100 100 100 100 100 100 100 100 100 100 100 100 100
5 5 5 5 5 2 4 77 99 100 100 100 7 6 100 89 100 100 100 100 100 100 100 100 100 100 100 100 100 100 100 100 100 100 100 100 100 100 100 100 100 100 100 100 100 100 100 100 100
5 5 5 5 5 4 5 5 100 100 100 100 99 13 1 34 100 100 100 100 100 100 100 100 100 100 100 100 100 100 100 100 100 100 100 100 100 100 100 100 100 100 100 100 100 100 100 100 100
5 5 9 9 5 5 5 5 2 66 100 100 100 99 12 5 46 100 100 100 100 61 100 100 100 100 100 100 100 100 100 100 100 100 100 100 100 100 100 100 100 100 100 100 100 100 100 100 100
5 5 6 21 5 75 1 48 0 4 77 100 100 100 97 5 14 71 100 100 97 100 85 100 100 100 100 100 100 100 100 100 100 100 100 100 100 100 100 100 100 100 100 100 100 100 100 100 100
6 5 5 5 6 5 5 5 4 0 5 29 56 100 96 99 9 34 74 100 100 83 71 100 100 100 100 100 100 100 100 100 100 100 100 100 100 100 100 100 100 100 100 100 100 100 100 100 100
5 5 2 2 4 5 5 5 4 2 5 5 5 70 100 91 58 8 32 69 100 98 98 81 100 100 100 100 100 100 100 100 100 100 100 100 100 100 100 100 100 100 100 100 100 100 100 100 100
5 4 9 4 5 5 4 5 5 5 5 5 5 5 72 100 99 28 29 24 41 100 97 86 70 100 100 100 100 100 100 100 100 100 100 100 100 100 100 100 100 100 100 100 100 100 100 100 100
51 5 10 24 5 9 1 4 5 5 5 5 5 5 6 8 32 31 56 81 74 93 100 100 65 88 100 100 100 100 100 100 100 100 100 100 100 100 100 100 100 100 100 100 100 100 100 100 100
7 83 62 97 65 86 0 4 5 5 5 5 5 4 5 20 37 5 47 83 99 98 100 100 100 100 100 100 100 100 100 100 100 100 100 100 100 100 100 100 100 100 100 100 100 100 100 100 100
38 16 64 77 79 10 4 3 4 7 16 6 5 0 5 5 5 5 5 77 100 84 100 100 100 100 100 100 100 100 100 100 100 100 100 100 100 100 100 100 100 100 100 100 100 100 100 100 100
34 5 12 51 88 97 70 3 4 3 31 79 44 43 5 5 5 5 5 54 100 93 100 100 100 100 100 100 100 100 100 100 100 100 100 100 100 100 100 100 100 100 100 100 100 100 100 100 100
98 41 17 57 40 88 71 14 5 5 5 5 14 100 100 92 5 5 3 46 100 98 91 100 100 100 100 100 100 100 100 100 100 100 100 100 100 100 100 100 100 100 100 100 100 100 100 100 100